Location: Unspecified
(0.0000°N, 0.0000°E)
Time: 10:01:42
(UTC+00:00)

N. Korean satellite - Pass Details

Date: 18 February 2018
Orbit: 457 x 514 km, 97.2° (Epoch: 19 May)

Event Time Altitude Azimuth Distance (km) Brightness Sun altitude
Rises 18:30:01 0° 178° (S) 2,498 10.3 -3.9°
Reaches altitude 10° 18:32:07 10° 183° (S) 1,613 9.4 -4.5°
Maximum altitude 18:35:28 49° 259° (W) 601 7.6 -5.3°
Drops below altitude 10° 18:38:47 10° 335° (NNW) 1,591 9.4 -6.1°
Sets 18:40:50 0° 341° (NNW) 2,460 10.3 -6.6°
